Location: Young's Pond
(41.2695°N, 72.7766°W)
Time: 20:01:39
(UTC-04:00)

Spot 4 - Visible Passes

Search period start: 24 March 2017 00:00
Search period end: 03 April 2017 00:00
Orbit: 705 x 724 km, 98.4° (Epoch: 23 March)

Date Brightness Start Highest point End Pass type
(mag) Time Alt. Az. Time Alt. Az. Time Alt. Az.
24 Mar 6.5 22:07:42 10° NNE 22:07:42 10° NNE 22:07:43 10° NNE visible
25 Mar 6.6 22:54:35 13° N 22:54:35 13° N 22:55:09 10° N visible
26 Mar 6.5 22:02:19 10° NNE 22:02:19 10° NNE 22:02:22 10° NNE visible
26 Mar 6.9 23:41:27 11° NNW 23:41:27 11° NNW 23:41:39 10° NNW visible
27 Mar 6.4 22:49:12 14° N 22:49:12 14° N 22:49:58 10° N visible
28 Mar 6.4 21:56:57 10° NNE 21:56:57 10° NNE 21:56:59 10° NNE visible
28 Mar 6.8 23:36:05 13° NNW 23:36:05 13° NNW 23:36:33 10° NNW visible
29 Mar 6.3 22:43:50 15° N 22:43:50 15° N 22:44:47 10° N visible
30 Mar 6.6 23:30:43 14° NNW 23:30:43 14° NNW 23:31:28 10° NNW visible
31 Mar 6.2 22:38:28 16° NNE 22:38:28 16° NNE 22:39:35 10° N visible
01 Apr 6.5 23:25:21 16° NNW 23:25:21 16° NNW 23:26:21 10° NNW visible
02 Apr 6.1 22:33:06 17° NNE 22:33:06 17° NNE 22:34:22 10° N visible
